KZR436 UACC-UAAA

Flight info

Callsign KZR436
Flight time N/A
Altitude 35000
Route BANOS1A BANOS W333 ETEDA ETEDA1Z
Aircraft A321/M-SDE3FGHIRWY/LB1

Departure

Time 2026-05-06 14:49
Airport Nursultan Nazarbayev International Airport (UACC)

Arrival

Time N/A
Airport Almaty International Airport (UAAA)
Time Latitude Longitude Altitude Speed Heading
2026-05-06 14:12 51.02716 71.46376 1164 ft 0 kts 314°
2026-05-06 14:39 51.02711 71.46384 1164 ft 3 kts 314°
2026-05-06 14:39 51.02698 71.46406 1162 ft 3 kts 314°
2026-05-06 14:39 51.02687 71.46427 1164 ft 3 kts 308°
2026-05-06 14:39 51.02675 71.46450 1162 ft 3 kts 316°
2026-05-06 14:40 51.02661 71.46469 1164 ft 3 kts 319°
2026-05-06 14:40 51.02652 71.46488 1163 ft 3 kts 326°
2026-05-06 14:40 51.02644 71.46495 1164 ft 0 kts 352°
2026-05-06 14:41 51.02646 71.46494 1164 ft 1 kts 352°
2026-05-06 14:41 51.02647 71.46494 1164 ft 0 kts 352°
2026-05-06 14:42 51.02648 71.46494 1164 ft 1 kts 354°
2026-05-06 14:42 51.02662 71.46509 1164 ft 8 kts 33°
2026-05-06 14:42 51.02705 71.46592 1164 ft 8 kts 90°
2026-05-06 14:42 51.02673 71.46677 1164 ft 9 kts 134°
2026-05-06 14:43 51.02615 71.46704 1164 ft 9 kts 201°
2026-05-06 14:43 51.02606 71.46695 1164 ft 9 kts 211°
2026-05-06 14:43 51.02576 71.46654 1164 ft 8 kts 223°
2026-05-06 14:44 51.02522 71.46573 1164 ft 14 kts 225°
2026-05-06 14:44 51.02504 71.46545 1164 ft 16 kts 225°
2026-05-06 14:44 51.02410 71.46396 1164 ft 24 kts 224°
2026-05-06 14:45 51.02128 71.45959 1164 ft 28 kts 225°
2026-05-06 14:45 51.01991 71.45744 1164 ft 28 kts 225°
2026-05-06 14:45 51.01949 71.45679 1164 ft 28 kts 224°
2026-05-06 14:45 51.01842 71.45513 1164 ft 28 kts 223°
2026-05-06 14:46 51.01702 71.45295 1164 ft 28 kts 224°
2026-05-06 14:46 51.01562 71.45074 1164 ft 28 kts 224°
2026-05-06 14:46 51.01420 71.44855 1164 ft 27 kts 225°
2026-05-06 14:46 51.01330 71.44712 1164 ft 11 kts 224°
2026-05-06 14:47 51.01325 71.44705 1164 ft 1 kts 221°
2026-05-06 14:47 51.01317 71.44701 1164 ft 2 kts 200°
2026-05-06 14:47 51.01270 71.44701 1164 ft 11 kts 167°
2026-05-06 14:47 51.01195 71.44801 1165 ft 16 kts 135°
2026-05-06 14:48 51.01188 71.44946 1164 ft 15 kts 50°
2026-05-06 14:48 51.01213 71.44989 1166 ft 0 kts 45°
2026-05-06 14:48 51.01214 71.44992 1166 ft 4 kts 45°
2026-05-06 14:49 51.01427 71.45325 1162 ft 79 kts 44°
2026-05-06 14:49 51.01977 71.46187 1163 ft 140 kts 45°
2026-05-06 14:49 51.02782 71.47428 1346 ft 172 kts 44°
2026-05-06 14:49 51.03650 71.48741 2019 ft 172 kts 44°
2026-05-06 14:50 51.04432 71.50160 2752 ft 174 kts 66°
2026-05-06 14:50 51.04470 71.52105 3207 ft 190 kts 110°
2026-05-06 14:50 51.03755 71.53982 3620 ft 207 kts 130°
2026-05-06 14:50 51.02776 71.55801 3964 ft 226 kts 132°
2026-05-06 14:51 51.01788 71.57822 4520 ft 233 kts 124°
2026-05-06 14:51 51.01016 71.60107 5183 ft 237 kts 117°
2026-05-06 14:51 51.00347 71.62540 5766 ft 243 kts 115°
2026-05-06 14:51 50.99692 71.65054 6339 ft 250 kts 115°
2026-05-06 14:52 50.99611 71.65366 6416 ft 250 kts 115°
2026-05-06 14:52 50.99514 71.65739 6496 ft 251 kts 115°
2026-05-06 14:52 50.98846 71.68296 7059 ft 255 kts 116°
2026-05-06 14:53 50.97906 71.70657 7625 ft 256 kts 138°
2026-05-06 14:53 50.96499 71.72536 7821 ft 275 kts 147°
2026-05-06 14:53 50.94922 71.74437 8123 ft 291 kts 147°
2026-05-06 14:53 50.93286 71.76387 8709 ft 297 kts 147°
2026-05-06 14:54 50.91619 71.78372 9359 ft 300 kts 147°
2026-05-06 14:54 50.89943 71.80374 10012 ft 304 kts 147°
2026-05-06 14:54 50.88221 71.82433 10305 ft 320 kts 147°
2026-05-06 14:54 50.86389 71.84622 10433 ft 341 kts 146°
2026-05-06 14:55 50.84439 71.86956 10540 ft 360 kts 146°
2026-05-06 14:55 50.82400 71.89400 10666 ft 377 kts 146°
2026-05-06 14:55 50.80260 71.91969 10791 ft 393 kts 146°
2026-05-06 14:55 50.78044 71.94633 10978 ft 406 kts 146°
2026-05-06 14:56 50.75783 71.97357 11365 ft 411 kts 146°
2026-05-06 14:56 50.73496 72.00112 11818 ft 415 kts 146°
2026-05-06 14:56 50.71181 72.02889 12264 ft 419 kts 146°
2026-05-06 14:56 50.68844 72.05680 12703 ft 423 kts 146°
2026-05-06 14:57 50.66484 72.08490 13145 ft 427 kts 146°
2026-05-06 14:57 50.64104 72.11322 13559 ft 430 kts 146°
2026-05-06 14:57 50.61706 72.14170 13990 ft 433 kts 146°
2026-05-06 14:57 50.59321 72.16996 14377 ft 436 kts 146°
2026-05-06 14:58 50.56857 72.19917 14782 ft 439 kts 146°
2026-05-06 14:58 50.54409 72.22816 15191 ft 442 kts 146°
2026-05-06 14:58 50.51951 72.25726 15581 ft 444 kts 146°
2026-05-06 14:58 50.49507 72.28614 15976 ft 447 kts 146°
2026-05-06 14:59 50.47014 72.31548 16372 ft 449 kts 146°
2026-05-06 14:59 50.45318 72.33544 16631 ft 451 kts 145°
2026-05-06 14:59 50.41984 72.37462 17176 ft 454 kts 145°
2026-05-06 14:59 50.39450 72.40437 17566 ft 456 kts 145°
2026-05-06 15:00 50.37729 72.42455 17820 ft 458 kts 145°
2026-05-06 15:00 50.35170 72.45455 18192 ft 461 kts 145°
2026-05-06 15:00 50.32595 72.48474 18530 ft 464 kts 145°
2026-05-06 15:00 50.30005 72.51500 18820 ft 466 kts 145°
2026-05-06 15:01 50.27393 72.54543 19118 ft 468 kts 146°
2026-05-06 15:01 50.24773 72.57585 19448 ft 470 kts 146°
2026-05-06 15:01 50.22178 72.60594 19762 ft 472 kts 146°
2026-05-06 15:01 50.19532 72.63679 20079 ft 475 kts 144°
2026-05-06 15:02 50.17040 72.67110 20391 ft 479 kts 139°
2026-05-06 15:02 50.14619 72.70697 20711 ft 482 kts 139°
2026-05-06 15:02 50.12177 72.74298 21013 ft 484 kts 139°
2026-05-06 15:02 50.09724 72.77899 21328 ft 486 kts 139°
2026-05-06 15:03 50.07251 72.81520 21621 ft 489 kts 139°
2026-05-06 15:03 50.04770 72.85150 21940 ft 490 kts 139°
2026-05-06 15:03 50.02286 72.88780 22272 ft 491 kts 139°
2026-05-06 15:03 49.99787 72.92433 22546 ft 494 kts 139°
2026-05-06 15:04 49.97273 72.96101 22801 ft 496 kts 139°
2026-05-06 15:04 49.94753 72.99769 23052 ft 498 kts 140°
2026-05-06 15:04 49.92224 73.03447 23309 ft 500 kts 140°
2026-05-06 15:04 49.89682 73.07142 23543 ft 501 kts 140°
2026-05-06 15:05 49.87134 73.10843 23751 ft 503 kts 140°
2026-05-06 15:05 49.84578 73.14549 23912 ft 504 kts 139°
2026-05-06 15:05 49.82009 73.18266 24069 ft 506 kts 139°
2026-05-06 15:05 49.79430 73.21991 24284 ft 506 kts 139°
2026-05-06 15:06 49.76860 73.25699 24523 ft 505 kts 139°
2026-05-06 15:06 49.74289 73.29402 24745 ft 505 kts 139°
2026-05-06 15:06 49.71709 73.33091 24987 ft 504 kts 141°
2026-05-06 15:06 49.69871 73.35373 25139 ft 502 kts 147°